x

Pt Arena - 19nm North Of Point Arena, Ca (46014) Wave Buoy

10:50am - Tue 7th Jul 2015 All times are PDT. -7 hours from GMT.

  • Sig Wave height 3.3ft
  • Peak Period 9s
  • Average Period 9s
  • Wind
    4mph
  • Sea Temp 57°f
  • Sea Pressure 1017.3mb
  • Pt Arena - 19nm North Of Point Arena, Ca
  • Pt Arena - 19nm North Of Point Arena, Ca

More Historic Weather Station data

Upgrade to MSW Pro to gain access to the past 30 days of data for over 8000 Wavebouys and Weather Stations around the globe.

Join Pro

Comparision Forecast

View Surf forecast
   
Tue 07/07 10:50am 3.5ft 9s 9s 4
mph
1017.3mb 57f
9:50am 3.5ft 9s 9s 4 7 mph 1017.5mb 58f
8:50am 3.5ft 9s 9s 2 4 mph 1017.6mb 58f
7:50am 3ft 13s 9s 4
mph
1017.4mb 57f
6:50am 3.5ft 9s 9s 2 4 mph 1017.1mb 56f
5:50am 3.5ft 9s 9s 2
mph
1016.7mb 56f
4:50am 3.5ft 14s 9s 4
mph
1016.3mb 56f
3:50am 3.5ft 9s 9s  -  2 mph 1016.4mb 56f
2:50am 3.5ft 9s 9s 4 7 mph 1016.6mb 56f
1:50am 4.5ft 9s 9s 4 7 mph 1017mb 56f
12:50am 4ft 9s 9s  -  2 mph 1017.6mb 57f
Mon 07/06 11:50pm 4ft 9s 9s 7
mph
1017.8mb 57f
10:50pm 3.5ft 14s 9s 4
mph
1018.1mb 56f
11:50am 4.5ft 10s 9s 4 7 mph 1019.5mb 58f
10:50am 3.5ft 10s 9s 4 7 mph 1019.6mb 57f
9:50am 4ft 10s 9s 4 7 mph 1019.6mb 56f
8:50am 4ft 9s 8s 7 9 mph 1019.1mb 56f
7:50am 3.5ft 15s 8s 7
mph
1018.7mb 56f
6:50am 4.5ft 9s 8s 7 9 mph 1018.3mb 56f
5:50am 4.5ft 10s 8s 4 7 mph 1017.7mb 56f
4:50am 4.5ft 10s 8s 7 9 mph 1017.2mb 56f
3:50am 4.5ft 9s 9s 4 7 mph 1017mb 56f
2:50am 4.5ft 9s 8s 4 7 mph 1016.7mb 57f
1:50am 4.5ft 9s 9s 4 7 mph 1016.4mb 57f
12:50am 4ft 9s 9s 4 7 mph 1016.2mb 57f
Sun 07/05 11:50pm 3.5ft 10s 8s 2 4 mph 1016.2mb 57f
10:50pm 4ft 10s 9s 4 9 mph 1016.1mb 57f
9:50pm 3.5ft 10s 8s 4 7 mph 1015.8mb 58f
8:50pm 3.5ft 10s 8s 2 4 mph 1015.5mb 58f
7:50pm 4ft 14s 8s 4
mph
1015.2mb 58f
6:50pm 4ft 10s 8s 7
mph
1015mb 58f
5:50pm 4.5ft 9s 8s 7 9 mph 1015mb 58f
4:50pm 4ft 14s 7s 7 9 mph 1015.3mb 58f
3:50pm 4.5ft 14s 7s 9 11 mph 1015.4mb 57f
2:50pm 4ft 9s 6s 11 13 mph 1015.4mb 56f
1:50pm 4ft 10s 6s 13 16 mph 1015.6mb 56f
12:50pm 4ft 9s 6s 16 20 mph 1015.1mb 56f
11:50am 4ft 14s 7s 18 20 mph 1015mb 57f
10:50am 3.5ft 15s 6s 18 20 mph 1014.5mb 57f
9:50am 3.5ft 9s 7s 13 16 mph 1014.6mb 56f
8:50am 3.5ft 15s 7s 13 16 mph 1014.2mb 56f
7:50am 3.5ft 14s 7s 16 18 mph 1013.5mb 56f
6:50am 3.5ft 15s 7s 9 11 mph 1013.3mb 56f
5:50am 4ft 14s 7s 9
mph
1012.8mb 56f
4:50am 3.5ft 8s 6s 11 13 mph 1012.2mb 56f
3:50am 3.5ft 8s 6s 11 13 mph 1011.9mb 56f
2:50am 4ft 8s 7s 13
mph
1011.9mb 56f
1:50am 4.5ft 15s 7s 11 13 mph 1011.7mb 56f
12:50am 4ft 8s 7s 9 11 mph 1011.6mb 57f
Sat 07/04 11:50pm 4ft 15s 7s 7 9 mph 1012mb 57f
10:50pm 4ft 8s 7s 7 9 mph 1011.9mb 58f
9:50pm 3.5ft 8s 7s 9 11 mph 1011.4mb 58f
8:50pm 4ft 8s 7s 7 9 mph 1011.5mb 58f
12:50pm 4.5ft 8s 7s 7 9 mph 1012mb 58f
11:50am 4.5ft 9s 7s 7 9 mph 1012.2mb 57f
10:50am 4.5ft 8s 8s 9 11 mph 1012.3mb 57f
9:50am 5ft 9s 8s 9 11 mph 1012.5mb 57f
8:50am 4.5ft 9s 8s 9 11 mph 1012.4mb 58f
7:50am 4.5ft 8s 8s 7 9 mph 1012.2mb 58f
6:50am 4.5ft 9s 8s 7 9 mph 1011.9mb 57f
5:50am 5ft 9s 8s 7
mph
1011.9mb 57f
4:50am 5ft 9s 8s 2
mph
1011.6mb 58f
3:50am 5ft 9s 8s 2
mph
1011.8mb 58f
2:50am 5ft 9s 8s  -  2 mph 1012.1mb 58f
1:50am 5ft 9s 8s 2 4 mph 1012.3mb 58f
12:50am 5ft 9s 8s 4
mph
1012.5mb 58f
Fri 07/03 11:50pm 5ft 9s 8s 4 7 mph 1012.7mb 58f
10:50pm 5ft 9s 8s 4 9 mph 1012.8mb 58f
9:50pm 5ft 9s 8s 4
mph
1013mb 58f
8:50pm 5ft 9s 8s 4 7 mph 1012.5mb 58f
7:50pm 5.5ft 10s 8s 2 4 mph 1012.5mb 58f